VK2RZ Weather Reports


time (UTC)temp
F
wind
direction
speed
knots
gust
knots
rain 1hr
in
rain 24hr
in
rain mn
in
humidity
%
barometer
mb
20260504174036 60 247 3.5 7.8 0.00 0.03 0.00 7 1015.9
20260504173036 60 231 2.6 7.0 0.00 0.03 0.00 7 1016.0
20260504172036 61 241 1.7 3.5 0.00 0.03 0.00 7 1016.1
20260504171036 61 259 6.1 6.1 0.00 0.03 0.00 7 1016.3
20260504151035 62 249 3.5 4.3 0.00 0.03 0.00 8 1016.3
20260504141034 64 241 2.6 2.6 0.00 0.03 0.00 8 1016.5
20260504081028 66 0 0.0 0.0 0.00 0.03 0.03 8 1015.6
20260504045026 67 0 0.0 0.0 0.00 0.03 0.03 8 1014.9
20260504044026 66 347 0.9 2.6 0.00 0.03 0.03 8 1015.0
20260504043026 66 0 0.0 0.0 0.00 0.03 0.03 8 1015.2
20260504042026 67 0 0.0 0.0 0.00 0.03 0.03 8 1015.2
20260504041026 67 0 0.0 0.0 0.00 0.03 0.03 8 1015.2
20260504040026 66 0 0.0 0.0 0.00 0.03 0.03 8 1015.3
20260504035026 65 0 0.0 0.0 0.00 0.03 0.03 8 1015.3
20260504034026 65 0 0.0 0.0 0.00 0.03 0.03 8 1015.5
20260504033026 65 0 0.0 0.0 0.00 0.03 0.03 8 1015.6
20260504032026 65 0 0.0 0.0 0.01 0.03 0.03 8 1015.9
20260504031026 65 0 0.0 0.0 0.01 0.03 0.03 8 1015.9
20260504030026 65 0 0.0 0.9 0.02 0.03 0.03 8 1016.2
20260504025026 66 1 0.9 0.9 0.03 0.03 0.03 8 1016.5
20260504024026 66 0 0.0 0.0 0.02 0.02 0.02 8 1016.7
20260504023026 66 0 0.0 0.0 0.02 0.02 0.02 8 1016.8
20260504022026 66 0 0.0 0.0 0.01 0.01 0.01 8 1017.0
20260504021026 66 4 1.7 1.7 0.01 0.01 0.01 8 1017.3
20260504020026 67 0 0.0 0.0 0.00 0.00 0.00 8 1017.5
20260504015026 68 0 0.0 0.0 0.00 0.00 0.00 8 1017.5
20260504014026 69 0 0.0 0.0 0.00 0.00 0.00 7 1017.6
20260504013026 69 0 0.0 0.0 0.00 0.00 0.00 7 1017.6
20260504012025 69 0 0.0 0.0 0.00 0.00 0.00 7 1017.7
20260504011025 69 0 0.0 0.0 0.00 0.00 0.00 7 1017.8
20260504010025 69 0 0.0 0.9 0.00 0.00 0.00 7 1017.8
20260504005025 69 41 0.9 0.9 0.00 0.00 0.00 7 1017.7
20260504004025 69 0 0.0 0.0 0.00 0.00 0.00 7 1017.6
20260504003025 68 41 0.9 1.7 0.00 0.00 0.00 7 1017.6
20260504002025 69 0 0.0 0.9 0.00 0.00 0.00 7 1017.6
20260504001025 68 0 0.0 0.9 0.00 0.00 0.00 7 1017.7
20260504000025 68 57 0.9 0.9 0.00 0.00 0.00 8 1017.8
20260503235025 67 0 0.0 1.7 0.00 0.00 0.00 7 1017.7
20260503234025 67 58 2.6 2.6 0.00 0.00 0.00 8 1017.7
20260503233025 68 125 0.9 1.7 0.00 0.00 0.00 7 1017.8
20260503232025 68 0 0.0 0.0 0.00 0.00 0.00 7 1017.9
20260503231025 68 76 0.9 0.9 0.00 0.00 0.00 7 1018.0
20260503230025 67 53 0.9 1.7 0.00 0.00 0.00 7 1017.8
20260503225025 67 49 2.6 2.6 0.00 0.00 0.00 8 1017.7
20260503224025 67 45 2.6 2.6 0.00 0.00 0.00 8 1017.4
20260503223024 67 44 1.7 1.7 0.00 0.00 0.00 8 1017.4
20260503222024 66 24 2.6 2.6 0.00 0.00 0.00 8 1017.3
20260503221024 66 23 0.9 0.9 0.00 0.00 0.00 7 1017.2
20260503220024 67 23 2.6 2.6 0.00 0.00 0.00 7 1017.2
20260503215024 67 0 0.0 0.0 0.00 0.00 0.00 7 1017.1
20260503214024 66 45 0.9 0.9 0.00 0.00 0.00 8 1017.1
20260503213024 66 0 0.0 0.0 0.00 0.00 0.00 8 1016.8
20260503212024 65 0 0.0 0.0 0.00 0.00 0.00 8 1016.8
20260503211024 64 0 0.0 0.0 0.00 0.00 0.00 8 1016.7
20260503210024 63 0 0.0 0.0 0.00 0.00 0.00 8 1016.7
20260503205024 63 0 0.0 0.0 0.00 0.00 0.00 8 1016.7
20260503204024 62 0 0.0 0.0 0.00 0.00 0.00 8 1016.5
20260503203024 62 0 0.0 0.0 0.00 0.00 0.00 8 1016.5
20260503202024 62 0 0.0 0.0 0.00 0.00 0.00 8 1016.4
20260503201024 63 0 0.0 0.0 0.00 0.00 0.00 8 1016.3
20260503200024 62 0 0.0 0.0 0.00 0.00 0.00 8 1016.3
20260503195024 62 0 0.0 0.0 0.00 0.00 0.00 8 1016.2
20260503194024 62 0 0.0 0.9 0.00 0.00 0.00 8 1016.1
20260503193024 62 0 0.0 1.7 0.00 0.00 0.00 8 1016.0
20260503192023 62 16 0.9 0.9 0.00 0.00 0.00 8 1015.9
20260503191023 62 0 0.0 0.0 0.00 0.00 0.00 8 1016.0
20260503190023 63 0 0.0 0.0 0.00 0.00 0.00 8 1016.0
20260503185023 62 0 0.0 0.0 0.00 0.00 0.00 8 1016.0
20260503184023 62 0 0.0 0.0 0.00 0.00 0.00 8 1016.0
20260503183023 63 16 0.9 1.7 0.00 0.00 0.00 8 1016.0
20260503182023 63 0 0.0 0.0 0.00 0.00 0.00 8 1015.9
20260503181023 63 0 0.0 0.0 0.00 0.00 0.00 8 1015.9
20260503180023 63 0 0.0 0.0 0.00 0.00 0.00 8 1016.0
20260503175023 63 0 0.0 0.0 0.00 0.00 0.00 8 1016.1